[Iaude] MPEC E215: 2022 EK6 [a=0.83,e=0.42,i=5.5,H=26.0]

mpec at marsden.cfa.harvard.edu mpec at marsden.cfa.harvard.edu
Tue Mar 15 03:24:23 EDT 2022


M.P.E.C. 2022-E215                               Issued 2022 March 15, 07:23 UT

     The Minor Planet Electronic Circulars contain information on unusual
         minor planets and routine data on comets.  They are published
    on behalf of Division F of the International Astronomical Union by the
          Minor Planet Center, Smithsonian Astrophysical Observatory,
                          Cambridge, MA 02138, U.S.A.

             Prepared using the Tamkin Foundation Computer Network

                              MPC at CFA.HARVARD.EDU
            URL https://www.minorplanetcenter.net/    ISSN 1523-6714

                                    2022 EK6                                    


Observations:
     K22E06K  C2022 03 08.40954 13 24 37.65 +47 04 09.1          19.5 GVEE215703
     K22E06K  C2022 03 08.41533 13 24 15.56 +47 04 03.1                VEE215703
     K22E06K  C2022 03 08.42638 13 23 33.52 +47 03 51.1                VEE215703
     K22E06K* C2022 03 13.22022411 02 55.55 +40 18 38.0          21.15GVEE215G96
     K22E06K  C2022 03 13.22542211 02 51.21 +40 18 16.2          20.84GVEE215G96
     K22E06K  C2022 03 13.23062411 02 46.92 +40 17 53.5          21.02GVEE215G96
     K22E06K  C2022 03 13.23585011 02 42.62 +40 17 31.2          21.18GVEE215G96
     K22E06K KC2022 03 13.34293011 01 15.77 +40 09 35.4          21.13GVEE215I52
     K22E06K KC2022 03 13.34539611 01 13.78 +40 09 23.8          20.95GVEE215I52
     K22E06K KC2022 03 13.34786111 01 11.83 +40 09 12.2          20.84GVEE215I52
     K22E06K KC2022 03 13.43467711 00 04.45 +40 02 23.1          21.73GVEE215I52
     K22E06K KC2022 03 13.43714211 00 02.62 +40 02 10.7          20.92GVEE215I52
     K22E06K KC2022 03 13.43960811 00 00.78 +40 01 59.4          20.67GVEE215I52
     K22E06K KC2022 03 14.23112010 51 47.01 +39 08 01.8          21.21GVEE215G96
     K22E06K KC2022 03 14.23290110 51 45.86 +39 07 55.4          20.82GVEE215G96
     K22E06K KC2022 03 14.23468210 51 44.70 +39 07 47.9          20.95GVEE215G96

Observer details:
703 Catalina Sky Survey.  Observer J. B. Fazekas.  Measurers E. J.
    Christensen, B. Gray, D. Rankin, F. C. Shelly.  0.68-m Schmidt + 10K CCD.
G96 Mt. Lemmon Survey.  Observers A. Serrano, K. W. Wierzchos.  Measurers E.
    J. Christensen, G. A. Farneth, J. B. Fazekas, D. C. Fuls, A. R. Gibbs, A.
    D. Grauer, H. Groeller, R. A. Kowalski, S. M. Larson, G. J. Leonard, D.
    Rankin, R. L. Seaman, A. Serrano, F. C. Shelly, K. W. Wierzchos.  1.5-m
    reflector + 10K CCD.
I52 Steward Observatory, Mt. Lemmon Station.  Observer A. R. Gibbs.  Measurers
    E. J. Christensen, G. A. Farneth, J. B. Fazekas, D. C. Fuls, A. R. Gibbs,
    A. D. Grauer, H. Groeller, R. A. Kowalski, S. M. Larson, G. J. Leonard, D.
    Rankin, R. L. Seaman, A. Serrano, F. C. Shelly, K. W. Wierzchos.

Orbital elements:
2022 EK6                                                 Earth MOID = 0.0158 AU
Epoch 2022 Jan. 21.0 TT = JDT 2459600.5                 Veres                   
M  38.89024              (2000.0)            P               Q                  
n   1.29264790     Peri.  232.90333     +0.87965301     -0.47393157             
a   0.8346080      Node   155.31119     +0.46108538     +0.82913244             
e   0.4217526      Incl.    5.49439     +0.11666555     +0.29652702             
P   0.76           H   26.05          G   0.15           U   7                  
Residuals in seconds of arc
220308 703  0.0   0.1-    220313 G96  0.7-  0.2-    220313 I52  0.5+  0.3+
220308 703  0.0   0.2-    220313 I52  0.3-  0.2+    220314 G96  0.0   0.0
220308 703  0.0   0.4+    220313 I52  0.5-  0.0     220314 G96  0.0   0.3+
220313 G96  0.7+  0.0     220313 I52  0.4-  0.2-    220314 G96  0.1-  0.6-
220313 G96  0.2-  0.3+    220313 I52  0.0   0.3+
220313 G96  0.5-  0.2-    220313 I52  0.3+  0.3-

Ephemeris:
2022 EK6                 a,e,i = 0.83, 0.42, 5                   q = 0.4826
Date    TT    R. A. (2000) Decl.     Delta      r    Elong.  Phase     V
2022 02 13    21 09 49.1 -22 14 06   0.1393  0.8515    12.1   166.0
...
2022 02 28    20 03 37.4 -08 26 28   0.04163 0.9586    39.3   139.1    25.8
...
2022 03 08    13 51 12.5 +46 57 51   0.02520 1.0075   126.0    52.8    20.0
...
2022 03 14    10 54 01.7 +39 23 07   0.05769 1.0402   142.2    35.8    21.4
2022 03 15    10 44 56.7 +38 20 32   0.06385 1.0453   142.0    35.8    21.6
2022 03 16    10 37 42.6 +37 25 57   0.07009 1.0503   141.6    36.0    21.9
...
2022 03 22    10 14 27.6 +33 43 32   0.1087  1.0786   137.3    38.8    22.9
...
2022 03 30    10 04 46.9 +30 51 47   0.1621  1.1110   130.7    43.0    24.0
...
2022 04 14    10 06 53.7 +27 11 54   0.2658  1.1561   119.2    49.2    25.3

M. P. C. Staff               (C) Copyright 2022 MPC           M.P.E.C. 2022-E215




More information about the Iaude mailing list